Über Hulianwang W. Digui 16-02
Group: 3 satellites
Beschreibung wird geladen...
Live-Position
3D-Globus wird geladen...
Nächste Überflüge
Höhenverlauf
Altitude vs Time
uPlot chart will show altitude changes over time
Zweizeiliger Elementsatz
1 67060U 25295B 25346.21279478 -.00000150 00000-0 43989-5 0 9997
2 67060 50.0012 14.4776 0013423 244.6732 115.2792 14.26022254 48
Epoch: 12. Dez. 2025 •
Age: 51 hours
Aktueller Status
Höhe 802.4 km
Geschwindigkeit 7.46 km/s
Subsatellitenpunkt -8.63°S,
17.4°W
Startdatum 11. Dez. 2025
Alter 3 days
Typ other
Technische Details
Klassifizierung Payload
Masse 800.00 kg
Trockenmasse 800.00 kg
Gesamtmasse 800.00 kg
Länge 3.00 m
Durchmesser 1.00 m
Spannweite 10.00 m
Form Box + 2 Pan
Hersteller YINNT
Bus-Typ Guowang Y
Phasenstatus In Orbit
Besitzer/Staat ZXW/CN
Große Konstellationen
Loading constellations...